Starlink 32473

operational
NORAD ID: 62049 Int'l Des: 2024-216 Owner: SPXS Country: US Constellation: starlink
LEOCIRCULAR

About Starlink 32473

Description loading...

Live Position

Loading 3D Globe...

Upcoming Passes

Altitude History

Altitude vs Time

uPlot chart will show altitude changes over time

Two-Line Element Set

1 62049U 24216T 25352.07927300 .00017945 00000-0 66027-3 0 9991
2 62049 43.0016 357.2792 0001081 253.5329 106.5404 15.27568523 60236
Epoch: Dec 18, 2025 • Age: 14 hours

Current Status

Altitude 482.8 km
Velocity 7.63 km/s
Sub-Earth Point 18.84°N, 45.51°E
Launch Date Nov 21, 2024
Age 1 years
Type internet

Technical Details

Classification Payload
Mass 730.00 kg
Dry Mass 700.00 kg
Total Mass 730.00 kg
Length 0.30 m
Diameter 4.10 m
Span 29.00 m
Shape Box + pan
Manufacturer SPXS
Bus Type Starlink V2M
Phase Status In Orbit
Owner/State SPXS/US

Large Constellations

Loading constellations...